Time,TemperatureF,DewpointF,PressureIn,WindDirection,WindDirectionDegrees,WindSpeedMPH,WindSpeedGustMPH,Humidity,HourlyPrecipIn,Conditions,Clouds,dailyrainin,SoftwareType,DateUTC
2013-01-13 00:02:00,72.7,66.5,29.97,ESE,123,0.0,0.0,81,0.04,,SCT120,0.00,VWS V14.01,2013-01-13 04:02:00,
2013-01-13 00:07:00,72.7,66.5,29.97,ESE,123,0.0,0.0,81,0.04,,SCT120,0.00,VWS V14.01,2013-01-13 04:07:00,
2013-01-13 00:12:00,72.5,66.3,29.97,ESE,122,0.0,0.0,81,0.04,,SCT120,0.00,VWS V14.01,2013-01-13 04:12:00,
2013-01-13 00:17:00,72.5,66.7,29.97,ESE,122,0.0,0.0,82,0.04,,SCT120,0.00,VWS V14.01,2013-01-13 04:17:00,
2013-01-13 00:22:00,72.3,66.5,29.97,ESE,122,0.0,0.0,82,0.04,,SCT120,0.00,VWS V14.01,2013-01-13 04:22:00,
2013-01-13 00:27:00,72.1,66.3,29.97,ESE,122,0.0,0.0,82,0.04,,SCT120,0.00,VWS V14.01,2013-01-13 04:27:00,
2013-01-13 00:32:00,72.0,66.2,29.97,ESE,122,0.0,0.0,82,0.04,,SCT120,0.00,VWS V14.01,2013-01-13 04:32:00,
2013-01-13 00:37:00,72.0,66.2,29.97,ESE,122,0.0,0.0,82,0.04,,SCT120,0.00,VWS V14.01,2013-01-13 04:37:00,
2013-01-13 00:42:00,71.8,66.0,29.97,ESE,122,0.0,0.0,82,0.00,,SCT120,0.00,VWS V14.01,2013-01-13 04:42:00,
2013-01-13 00:47:00,71.8,66.3,29.97,ESE,122,0.0,0.0,83,0.00,,SCT120,0.00,VWS V14.01,2013-01-13 04:47:00,
2013-01-13 00:52:00,71.6,66.2,29.97,ESE,122,0.0,0.0,83,0.00,,SCT120,0.00,VWS V14.01,2013-01-13 04:52:00,
2013-01-13 00:57:00,71.8,66.3,29.97,ESE,117,0.0,0.0,83,0.00,,SCT120,0.00,VWS V14.01,2013-01-13 04:57:00,
2013-01-13 01:00:00,71.6,66.2,29.97,ESE,117,0.0,0.0,83,0.00,,SCT120,0.00,VWS V14.01,2013-01-13 05:00:00,
2013-01-13 01:01:00,71.6,66.2,29.97,ESE,117,0.0,0.0,83,0.00,,SCT120,0.00,VWS V14.01,2013-01-13 05:01:00,
2013-01-13 01:02:00,71.6,66.2,29.97,ESE,117,0.0,0.0,83,0.00,,SCT120,0.00,VWS V14.01,2013-01-13 05:02:00,
2013-01-13 01:07:00,71.6,66.2,29.97,ESE,117,0.0,0.0,83,0.00,,SCT120,0.00,VWS V14.01,2013-01-13 05:07:00,
2013-01-13 01:12:00,71.6,66.2,29.97,ESE,117,0.0,0.0,83,0.00,,SCT120,0.00,VWS V14.01,2013-01-13 05:12:00,
2013-01-13 01:17:00,71.4,66.0,29.97,ESE,117,0.0,0.0,83,0.00,,SCT120,0.00,VWS V14.01,2013-01-13 05:17:00,
2013-01-13 01:22:00,71.4,66.0,29.97,ESE,117,0.0,0.0,83,0.00,,SCT120,0.00,VWS V14.01,2013-01-13 05:22:00,
2013-01-13 01:27:00,71.4,66.0,29.97,ESE,117,0.0,0.0,83,0.00,,SCT120,0.00,VWS V14.01,2013-01-13 05:27:00,
2013-01-13 01:32:00,71.2,65.8,29.97,ESE,117,0.0,0.0,83,0.00,,SCT120,0.00,VWS V14.01,2013-01-13 05:32:00,
2013-01-13 01:37:00,71.2,65.8,29.97,ESE,117,0.0,0.0,83,0.00,,SCT120,0.00,VWS V14.01,2013-01-13 05:37:00,
2013-01-13 01:42:00,71.1,65.6,29.97,ESE,117,0.0,0.0,83,0.00,,SCT120,0.00,VWS V14.01,2013-01-13 05:42:00,
2013-01-13 01:47:00,71.1,65.6,29.97,ESE,117,0.0,0.0,83,0.00,,SCT120,0.00,VWS V14.01,2013-01-13 05:47:00,
2013-01-13 01:52:00,71.1,65.6,29.97,ESE,117,0.0,0.0,83,0.00,,SCT120,0.00,VWS V14.01,2013-01-13 05:52:00,
2013-01-13 01:57:00,71.1,65.6,29.97,ESE,122,0.0,0.0,83,0.00,,SCT120,0.00,VWS V14.01,2013-01-13 05:57:00,
2013-01-13 02:02:00,70.9,65.5,29.97,ESE,122,0.0,0.0,83,0.00,,SCT120,0.00,VWS V14.01,2013-01-13 06:02:00,
2013-01-13 02:07:00,70.5,65.1,29.97,ESE,122,0.0,0.0,83,0.00,,SCT120,0.00,VWS V14.01,2013-01-13 06:07:00,
2013-01-13 02:12:00,70.3,64.6,29.97,ESE,122,0.0,0.0,82,0.00,,SCT120,0.00,VWS V14.01,2013-01-13 06:12:00,
2013-01-13 02:17:00,70.2,64.4,29.97,ESE,122,0.0,0.0,82,0.00,,SCT120,0.00,VWS V14.01,2013-01-13 06:17:00,
2013-01-13 02:22:00,70.2,64.4,29.97,ESE,122,0.0,0.0,82,0.00,,SCT120,0.00,VWS V14.01,2013-01-13 06:22:00,
2013-01-13 02:27:00,70.2,64.4,29.97,ESE,122,0.0,0.0,82,0.00,,SCT120,0.00,VWS V14.01,2013-01-13 06:27:00,
2013-01-13 02:32:00,70.0,64.2,29.97,ESE,122,0.0,0.0,82,0.00,,SCT120,0.00,VWS V14.01,2013-01-13 06:32:00,
2013-01-13 02:37:00,70.0,64.2,29.97,ESE,122,0.0,0.0,82,0.00,,SCT120,0.00,VWS V14.01,2013-01-13 06:37:00,
2013-01-13 02:42:00,69.8,64.1,29.97,ESE,122,0.0,0.0,82,0.00,,SCT120,0.00,VWS V14.01,2013-01-13 06:42:00,
2013-01-13 02:47:00,69.6,64.2,29.97,ESE,122,0.0,0.0,83,0.00,,SCT120,0.00,VWS V14.01,2013-01-13 06:47:00,
2013-01-13 02:52:00,69.6,64.2,29.97,ESE,122,0.0,0.0,83,0.00,,SCT120,0.00,VWS V14.01,2013-01-13 06:52:00,
2013-01-13 02:57:00,69.4,64.1,29.97,ESE,122,0.0,0.0,83,0.00,,SCT120,0.00,VWS V14.01,2013-01-13 06:57:00,
2013-01-13 03:02:00,69.3,63.9,29.97,ESE,122,0.0,0.0,83,0.00,,SCT120,0.00,VWS V14.01,2013-01-13 07:02:00,
2013-01-13 03:07:00,69.3,63.9,29.97,ESE,122,0.0,0.0,83,0.00,,SCT120,0.00,VWS V14.01,2013-01-13 07:07:00,
2013-01-13 03:12:00,69.3,63.9,29.97,ESE,122,0.0,0.0,83,0.00,,SCT120,0.00,VWS V14.01,2013-01-13 07:12:00,
2013-01-13 03:17:00,69.1,64.1,29.97,ESE,122,0.0,0.0,84,0.00,,SCT120,0.00,VWS V14.01,2013-01-13 07:17:00,
2013-01-13 03:22:00,69.1,64.1,29.94,ESE,122,0.0,0.0,84,0.00,,SCT120,0.00,VWS V14.01,2013-01-13 07:22:00,
2013-01-13 03:27:00,69.1,64.1,29.94,ESE,121,0.0,0.0,84,0.00,,SCT120,0.00,VWS V14.01,2013-01-13 07:27:00,
2013-01-13 03:32:00,69.1,64.1,29.94,ESE,122,0.0,0.0,84,0.00,,SCT120,0.00,VWS V14.01,2013-01-13 07:32:00,
2013-01-13 03:37:00,68.9,63.9,29.97,ESE,122,0.0,0.0,84,0.00,,SCT120,0.00,VWS V14.01,2013-01-13 07:37:00,
2013-01-13 03:42:00,68.7,63.7,29.97,ESE,122,0.0,0.0,84,0.00,,SCT120,0.00,VWS V14.01,2013-01-13 07:42:00,
2013-01-13 03:47:00,68.5,63.5,29.97,ESE,122,0.0,0.0,84,0.00,,SCT120,0.00,VWS V14.01,2013-01-13 07:47:00,
2013-01-13 03:52:00,68.5,63.5,29.94,ESE,122,0.0,0.0,84,0.00,,SCT120,0.00,VWS V14.01,2013-01-13 07:52:00,
2013-01-13 03:57:00,68.5,63.5,29.94,ESE,122,0.0,0.0,84,0.00,,SCT120,0.00,VWS V14.01,2013-01-13 07:57:00,
2013-01-13 04:02:00,68.4,63.3,29.94,ESE,122,0.0,0.0,84,0.00,,SCT120,0.00,VWS V14.01,2013-01-13 08:02:00,
2013-01-13 04:07:00,68.4,63.3,29.94,ESE,122,0.0,0.0,84,0.00,,SCT120,0.00,VWS V14.01,2013-01-13 08:07:00,
2013-01-13 04:12:00,68.4,63.3,29.94,ESE,122,0.0,0.0,84,0.00,,SCT120,0.00,VWS V14.01,2013-01-13 08:12:00,
2013-01-13 04:17:00,68.2,63.5,29.94,ESE,122,0.0,0.0,85,0.00,,SCT120,0.00,VWS V14.01,2013-01-13 08:17:00,
2013-01-13 04:22:00,68.2,63.5,29.94,ESE,122,0.0,0.0,85,0.00,,SCT120,0.00,VWS V14.01,2013-01-13 08:22:00,
2013-01-13 04:27:00,68.4,63.7,29.94,ESE,122,0.0,0.0,85,0.00,,SCT120,0.00,VWS V14.01,2013-01-13 08:27:00,
2013-01-13 04:32:00,68.2,63.5,29.94,ESE,122,0.0,0.0,85,0.00,,SCT120,0.00,VWS V14.01,2013-01-13 08:32:00,
2013-01-13 04:37:00,68.2,63.5,29.97,ESE,122,0.0,0.0,85,0.00,,SCT120,0.00,VWS V14.01,2013-01-13 08:37:00,
2013-01-13 04:42:00,68.2,63.5,29.97,ESE,122,0.0,0.0,85,0.00,,SCT120,0.00,VWS V14.01,2013-01-13 08:42:00,
2013-01-13 04:47:00,68.2,63.5,29.97,ESE,122,0.0,0.0,85,0.00,,SCT120,0.00,VWS V14.01,2013-01-13 08:47:00,
2013-01-13 04:52:00,68.0,63.3,29.97,ESE,122,0.0,0.0,85,0.00,,SCT120,0.00,VWS V14.01,2013-01-13 08:52:00,
2013-01-13 04:57:00,67.8,63.2,29.97,ESE,122,0.0,0.0,85,0.00,,SCT120,0.00,VWS V14.01,2013-01-13 08:57:00,
2013-01-13 05:02:00,67.8,63.2,29.97,ESE,122,0.0,0.0,85,0.00,,SCT120,0.00,VWS V14.01,2013-01-13 09:02:00,
2013-01-13 05:07:00,67.8,63.5,29.97,ESE,122,0.0,0.0,86,0.00,,SCT120,0.00,VWS V14.01,2013-01-13 09:07:00,
2013-01-13 05:12:00,67.8,63.2,29.97,ESE,122,0.0,0.0,85,0.00,,SCT120,0.00,VWS V14.01,2013-01-13 09:12:00,
2013-01-13 05:17:00,67.6,63.3,29.97,ESE,122,0.0,0.0,86,0.00,,SCT120,0.00,VWS V14.01,2013-01-13 09:17:00,
2013-01-13 05:22:00,67.6,63.3,29.97,ESE,122,0.0,0.0,86,0.00,,SCT120,0.00,VWS V14.01,2013-01-13 09:22:00,
2013-01-13 05:27:00,67.5,63.1,29.97,ESE,122,0.0,0.0,86,0.00,,SCT120,0.00,VWS V14.01,2013-01-13 09:27:00,
2013-01-13 05:32:00,67.6,63.3,29.97,ESE,122,0.0,0.0,86,0.00,,SCT120,0.00,VWS V14.01,2013-01-13 09:32:00,
2013-01-13 05:37:00,67.5,63.1,29.97,ESE,122,0.0,0.0,86,0.00,,SCT120,0.00,VWS V14.01,2013-01-13 09:37:00,
2013-01-13 05:42:00,67.3,62.6,29.97,ESE,122,0.0,0.0,85,0.00,,SCT120,0.00,VWS V14.01,2013-01-13 09:42:00,
2013-01-13 05:47:00,67.1,62.5,29.97,ESE,122,0.0,0.0,85,0.00,,SCT120,0.00,VWS V14.01,2013-01-13 09:47:00,
2013-01-13 05:52:00,67.1,62.5,29.97,ESE,122,0.0,0.0,85,0.00,,SCT120,0.00,VWS V14.01,2013-01-13 09:52:00,
2013-01-13 05:57:00,67.1,62.5,29.97,ESE,122,0.0,0.0,85,0.00,,SCT120,0.00,VWS V14.01,2013-01-13 09:57:00,
2013-01-13 06:02:00,66.9,62.3,29.97,ESE,123,0.0,0.0,85,0.00,,SCT120,0.00,VWS V14.01,2013-01-13 10:02:00,
2013-01-13 06:07:00,66.9,62.6,29.97,ESE,122,0.0,0.0,86,0.00,,SCT120,0.00,VWS V14.01,2013-01-13 10:07:00,
2013-01-13 06:12:00,66.9,62.6,29.97,ESE,122,0.0,0.0,86,0.00,,SCT120,0.00,VWS V14.01,2013-01-13 10:12:00,
2013-01-13 06:17:00,66.7,62.4,29.97,ESE,122,0.0,0.0,86,0.00,,SCT120,0.00,VWS V14.01,2013-01-13 10:17:00,
2013-01-13 06:22:00,66.7,62.4,29.97,ESE,122,0.0,0.0,86,0.00,,SCT120,0.00,VWS V14.01,2013-01-13 10:22:00,
2013-01-13 06:27:00,66.7,62.4,29.97,ESE,122,0.0,0.0,86,0.00,,SCT120,0.00,VWS V14.01,2013-01-13 10:27:00,
2013-01-13 06:32:00,66.7,62.4,29.97,ESE,121,0.0,0.0,86,0.00,,SCT120,0.00,VWS V14.01,2013-01-13 10:32:00,
2013-01-13 06:37:00,66.7,62.4,30.00,ESE,121,0.0,0.0,86,0.00,,SCT120,0.00,VWS V14.01,2013-01-13 10:37:00,
2013-01-13 06:42:00,66.7,62.4,30.00,ESE,122,0.0,0.0,86,0.00,,SCT120,0.00,VWS V14.01,2013-01-13 10:42:00,
2013-01-13 06:47:00,66.7,62.4,30.00,ESE,123,0.0,0.0,86,0.00,,SCT120,0.00,VWS V14.01,2013-01-13 10:47:00,
2013-01-13 06:52:00,66.6,62.2,30.00,ESE,122,0.0,0.0,86,0.00,,SCT120,0.00,VWS V14.01,2013-01-13 10:52:00,
2013-01-13 06:57:00,66.6,62.2,30.00,ESE,122,0.0,0.0,86,0.00,,SCT120,0.00,VWS V14.01,2013-01-13 10:57:00,
2013-01-13 07:02:00,66.6,62.2,30.00,ESE,122,0.0,0.0,86,0.00,,SCT120,0.00,VWS V14.01,2013-01-13 11:02:00,
2013-01-13 07:07:00,66.7,62.4,30.00,ESE,123,0.0,0.0,86,0.00,,SCT120,0.00,VWS V14.01,2013-01-13 11:07:00,
2013-01-13 07:12:00,66.7,62.8,30.00,ESE,123,0.0,0.0,87,0.00,,SCT120,0.00,VWS V14.01,2013-01-13 11:12:00,
2013-01-13 07:17:00,66.9,62.9,30.00,ESE,122,0.0,0.0,87,0.00,,SCT120,0.00,VWS V14.01,2013-01-13 11:17:00,
2013-01-13 07:22:00,66.9,62.9,30.00,ESE,120,0.0,0.0,87,0.00,,SCT120,0.00,VWS V14.01,2013-01-13 11:22:00,
2013-01-13 07:27:00,67.1,63.1,30.00,ESE,119,0.0,0.0,87,0.00,,SCT120,0.00,VWS V14.01,2013-01-13 11:27:00,
2013-01-13 07:32:00,67.3,63.3,30.00,ESE,119,0.0,0.0,87,0.00,,SCT120,0.00,VWS V14.01,2013-01-13 11:32:00,
2013-01-13 07:37:00,67.5,63.5,30.00,ESE,119,0.0,0.0,87,0.00,,SCT120,0.00,VWS V14.01,2013-01-13 11:37:00,
2013-01-13 07:42:00,67.5,63.5,30.00,ESE,119,0.0,0.0,87,0.00,,SCT120,0.00,VWS V14.01,2013-01-13 11:42:00,
2013-01-13 07:47:00,67.6,64.0,30.00,ESE,119,0.0,0.0,88,0.00,,SCT120,0.00,VWS V14.01,2013-01-13 11:47:00,
2013-01-13 07:52:00,67.6,64.0,30.00,ESE,119,0.0,0.0,88,0.00,,SCT120,0.00,VWS V14.01,2013-01-13 11:52:00,
2013-01-13 07:57:00,68.0,64.0,30.00,ESE,119,0.0,0.0,87,0.00,,SCT120,0.00,VWS V14.01,2013-01-13 11:57:00,
2013-01-13 08:02:00,68.2,64.5,30.00,ESE,119,0.0,0.0,88,0.00,,SCT120,0.00,VWS V14.01,2013-01-13 12:02:00,
2013-01-13 08:07:00,68.5,64.8,30.03,ESE,120,0.0,0.0,88,0.00,,SCT120,0.00,VWS V14.01,2013-01-13 12:07:00,
2013-01-13 08:12:00,68.9,65.2,30.03,ESE,120,0.0,0.0,88,0.00,,SCT120,0.00,VWS V14.01,2013-01-13 12:12:00,
2013-01-13 08:17:00,69.1,65.4,30.03,ESE,119,0.0,0.0,88,0.00,,SCT120,0.00,VWS V14.01,2013-01-13 12:17:00,
2013-01-13 08:22:00,69.6,65.9,30.03,ESE,121,0.0,0.0,88,0.00,,SCT120,0.00,VWS V14.01,2013-01-13 12:22:00,
2013-01-13 08:27:00,70.0,66.3,30.03,ESE,119,0.0,0.0,88,0.00,,SCT120,0.00,VWS V14.01,2013-01-13 12:27:00,
2013-01-13 08:32:00,70.5,66.8,30.03,ESE,120,0.0,0.0,88,0.00,,SCT120,0.00,VWS V14.01,2013-01-13 12:32:00,
2013-01-13 08:37:00,71.1,67.0,30.03,ESE,120,0.0,0.0,87,0.00,,SCT120,0.00,VWS V14.01,2013-01-13 12:37:00,
2013-01-13 08:42:00,71.4,67.0,30.03,ESE,119,0.0,0.0,86,0.00,,SCT120,0.00,VWS V14.01,2013-01-13 12:42:00,
2013-01-13 08:47:00,72.0,66.9,30.03,SE,131,0.0,0.0,84,0.00,,SCT120,0.00,VWS V14.01,2013-01-13 12:47:00,
2013-01-13 08:52:00,72.3,66.5,30.03,SE,131,0.0,0.0,82,0.00,,SCT120,0.00,VWS V14.01,2013-01-13 12:52:00,
2013-01-13 08:57:00,72.7,66.2,30.03,SE,131,0.0,0.0,80,0.00,,SCT120,0.00,VWS V14.01,2013-01-13 12:57:00,
2013-01-13 09:02:00,72.9,65.6,30.03,SE,131,0.0,0.0,78,0.00,,SCT120,0.00,VWS V14.01,2013-01-13 13:02:00,
2013-01-13 09:07:00,73.4,64.6,30.03,SE,131,0.0,0.0,74,0.00,,SCT120,0.00,VWS V14.01,2013-01-13 13:07:00,
2013-01-13 09:12:00,73.8,63.0,30.03,SE,131,0.0,0.0,69,0.00,,SCT120,0.00,VWS V14.01,2013-01-13 13:12:00,
2013-01-13 09:17:00,74.1,62.9,30.03,SE,131,0.0,0.0,68,0.00,,SCT120,0.00,VWS V14.01,2013-01-13 13:17:00,
2013-01-13 09:22:00,74.5,62.4,30.03,SE,131,0.0,0.0,66,0.00,,SCT120,0.00,VWS V14.01,2013-01-13 13:22:00,
2013-01-13 09:27:00,74.8,57.6,30.03,SE,131,0.0,0.0,55,0.00,,SCT120,0.00,VWS V14.01,2013-01-13 13:27:00,
2013-01-13 09:32:00,75.0,52.3,30.03,SE,131,0.0,0.0,45,0.00,,SCT120,0.00,VWS V14.01,2013-01-13 13:32:00,
2013-01-13 09:37:00,75.7,48.4,30.03,SE,131,0.0,0.0,38,0.00,,SCT120,0.00,VWS V14.01,2013-01-13 13:37:00,
2013-01-13 09:42:00,76.1,44.9,30.03,SE,131,0.0,0.0,33,0.00,,SCT120,0.00,VWS V14.01,2013-01-13 13:42:00,
2013-01-13 09:47:00,76.6,43.8,30.03,SE,131,0.0,0.0,31,0.00,,SCT120,0.00,VWS V14.01,2013-01-13 13:47:00,
2013-01-13 09:52:00,77.0,44.1,30.03,SE,131,0.0,0.0,31,0.00,,SCT120,0.00,VWS V14.01,2013-01-13 13:52:00,
2013-01-13 09:57:00,77.7,44.7,30.03,SE,131,0.0,0.0,31,0.00,,SCT120,0.00,VWS V14.01,2013-01-13 13:57:00,
2013-01-13 10:02:00,78.1,45.0,30.03,SE,131,0.0,0.0,31,0.00,,SCT120,0.00,VWS V14.01,2013-01-13 14:02:00,
2013-01-13 10:07:00,78.1,45.0,30.03,SE,131,0.0,0.0,31,0.00,,SCT120,0.00,VWS V14.01,2013-01-13 14:07:00,
2013-01-13 10:12:00,77.9,44.0,30.03,SE,131,0.0,0.0,30,0.00,,SCT120,0.00,VWS V14.01,2013-01-13 14:12:00,
2013-01-13 10:17:00,78.1,44.2,30.03,NNE,31,3.6,3.6,30,0.00,,SCT120,0.00,VWS V14.01,2013-01-13 14:17:00,
2013-01-13 10:22:00,78.1,45.0,30.03,NNE,31,3.6,3.6,31,0.00,,SCT120,0.00,VWS V14.01,2013-01-13 14:22:00,
2013-01-13 10:27:00,77.9,43.1,30.03,NNE,31,3.6,3.6,29,0.00,,SCT120,0.00,VWS V14.01,2013-01-13 14:27:00,
2013-01-13 10:32:00,78.3,42.5,30.03,NNE,31,3.6,3.6,28,0.00,,SCT120,0.00,VWS V14.01,2013-01-13 14:32:00,
2013-01-13 10:37:00,78.3,40.6,30.03,ENE,62,5.8,5.8,26,0.00,,SCT120,0.00,VWS V14.01,2013-01-13 14:37:00,
2013-01-13 10:42:00,78.6,39.9,30.03,North,357,5.8,6.7,25,0.00,,SCT120,0.00,VWS V14.01,2013-01-13 14:42:00,
2013-01-13 10:47:00,79.5,41.7,30.03,North,357,5.8,6.7,26,0.00,,SCT120,0.00,VWS V14.01,2013-01-13 14:47:00,
2013-01-13 10:52:00,78.4,37.6,30.00,NE,52,8.7,8.7,23,0.00,,SCT120,0.00,VWS V14.01,2013-01-13 14:52:00,
2013-01-13 10:57:00,77.7,38.1,30.00,NE,39,3.1,8.7,24,0.00,,SCT120,0.00,VWS V14.01,2013-01-13 14:57:00,
2013-01-13 11:02:00,77.7,39.1,30.00,NE,39,3.1,3.1,25,0.00,,SCT120,0.00,VWS V14.01,2013-01-13 15:02:00,
2013-01-13 11:07:00,78.8,37.9,30.00,NNE,15,3.6,4.0,23,0.00,,SCT120,0.00,VWS V14.01,2013-01-13 15:07:00,
2013-01-13 11:12:00,79.9,36.5,30.00,NNW,331,3.6,6.3,21,0.00,,SCT120,0.00,VWS V14.01,2013-01-13 15:12:00,
2013-01-13 11:17:00,79.9,36.5,30.00,NNW,331,3.6,6.3,21,0.00,,SCT120,0.00,VWS V14.01,2013-01-13 15:17:00,
2013-01-13 11:22:00,79.9,37.7,30.00,ENE,66,7.6,8.7,22,0.00,,SCT120,0.00,VWS V14.01,2013-01-13 15:22:00,
2013-01-13 11:27:00,79.9,35.3,30.00,NNE,32,3.1,8.7,20,0.00,,SCT120,0.00,VWS V14.01,2013-01-13 15:27:00,
2013-01-13 11:32:00,80.6,37.1,30.00,North,357,5.4,8.7,21,0.00,,SCT120,0.00,VWS V14.01,2013-01-13 15:32:00,
2013-01-13 11:37:00,80.2,35.6,30.00,East,85,3.1,8.7,20,0.00,,SCT120,0.00,VWS V14.01,2013-01-13 15:37:00,
2013-01-13 11:42:00,81.1,36.3,30.00,NNE,12,3.1,4.9,20,0.00,,SCT120,0.00,VWS V14.01,2013-01-13 15:42:00,
2013-01-13 11:47:00,81.7,36.8,30.00,ENE,62,6.3,7.6,20,0.00,,SCT120,0.00,VWS V14.01,2013-01-13 15:47:00,
2013-01-13 11:52:00,81.3,36.5,30.00,NE,41,5.8,8.3,20,0.00,,SCT120,0.00,VWS V14.01,2013-01-13 15:52:00,
2013-01-13 11:57:00,80.4,35.7,30.00,ENE,75,5.4,8.3,20,0.00,,SCT120,0.00,VWS V14.01,2013-01-13 15:57:00,
2013-01-13 12:02:00,80.4,35.7,30.00,NW,317,3.6,3.6,20,0.00,,SCT120,0.00,VWS V14.01,2013-01-13 16:02:00,
2013-01-13 12:07:00,80.6,27.0,29.97,NNW,327,6.3,6.3,14,0.00,,SCT120,0.00,VWS V14.01,2013-01-13 16:07:00,
2013-01-13 12:12:00,81.3,35.2,29.97,North,11,7.6,7.6,19,0.00,,SCT120,0.00,VWS V14.01,2013-01-13 16:12:00,
2013-01-13 12:17:00,80.8,32.0,29.97,North,11,7.6,7.6,17,0.00,,SCT120,0.00,VWS V14.01,2013-01-13 16:17:00,
2013-01-13 12:22:00,81.0,32.1,29.97,NNE,18,4.0,7.6,17,0.00,,SCT120,0.00,VWS V14.01,2013-01-13 16:22:00,
2013-01-13 12:27:00,80.2,28.4,29.97,NE,41,5.8,7.6,15,0.00,,SCT120,0.00,VWS V14.01,2013-01-13 16:27:00,
2013-01-13 12:32:00,80.8,32.0,29.97,NE,41,5.8,7.6,17,0.00,,SCT120,0.00,VWS V14.01,2013-01-13 16:32:00,
2013-01-13 12:37:00,81.3,27.6,29.97,NE,41,5.8,7.6,14,0.00,,SCT120,0.00,VWS V14.01,2013-01-13 16:37:00,
2013-01-13 12:42:00,81.5,27.8,29.97,North,11,5.8,5.8,14,0.00,,SCT120,0.00,VWS V14.01,2013-01-13 16:42:00,
2013-01-13 12:47:00,80.8,23.5,29.97,NNE,13,3.6,5.8,12,0.00,,SCT120,0.00,VWS V14.01,2013-01-13 16:47:00,
2013-01-13 12:52:00,81.3,27.6,29.97,North,9,2.7,5.8,14,0.00,,SCT120,0.00,VWS V14.01,2013-01-13 16:52:00,
2013-01-13 12:57:00,81.9,24.3,29.97,NE,34,3.1,5.8,12,0.00,,SCT120,0.00,VWS V14.01,2013-01-13 16:57:00,
2013-01-13 13:02:00,82.4,22.7,29.97,NE,34,3.1,3.1,11,0.00,,SCT120,0.00,VWS V14.01,2013-01-13 17:02:00,
2013-01-13 13:07:00,82.0,24.5,29.97,North,357,3.1,5.8,12,0.00,,SCT120,0.00,VWS V14.01,2013-01-13 17:07:00,
2013-01-13 13:12:00,81.5,24.0,29.97,North,4,2.7,5.8,12,0.00,,SCT120,0.00,VWS V14.01,2013-01-13 17:12:00,
2013-01-13 13:17:00,81.7,24.2,29.97,NNW,344,5.8,5.8,12,0.00,,SCT120,0.00,VWS V14.01,2013-01-13 17:17:00,
2013-01-13 13:22:00,81.1,23.8,29.97,NNW,344,5.8,5.8,12,0.00,,SCT120,0.00,VWS V14.01,2013-01-13 17:22:00,
2013-01-13 13:27:00,81.1,23.8,29.97,North,357,2.7,5.8,12,0.00,,SCT120,0.00,VWS V14.01,2013-01-13 17:27:00,
2013-01-13 13:32:00,81.9,24.3,29.97,NNW,330,8.7,8.7,12,0.00,,SCT120,0.00,VWS V14.01,2013-01-13 17:32:00,
2013-01-13 13:37:00,82.0,17.7,29.97,ENE,64,2.2,8.7,9,0.00,,SCT120,0.00,VWS V14.01,2013-01-13 17:37:00,
2013-01-13 13:42:00,82.0,17.7,29.97,NE,52,3.1,5.8,9,0.00,,SCT120,0.00,VWS V14.01,2013-01-13 17:42:00,
2013-01-13 13:47:00,81.9,17.6,29.97,North,357,8.3,8.3,9,0.00,,SCT120,0.00,VWS V14.01,2013-01-13 17:47:00,
2013-01-13 13:52:00,82.0,17.7,29.94,WNW,297,4.0,8.3,9,0.00,,SCT120,0.00,VWS V14.01,2013-01-13 17:52:00,
2013-01-13 13:57:00,81.9,17.6,29.94,North,4,5.4,8.3,9,0.00,,SCT120,0.00,VWS V14.01,2013-01-13 17:57:00,
2013-01-13 14:02:00,82.0,17.7,29.94,North,1,6.3,6.3,9,0.00,,SCT120,0.00,VWS V14.01,2013-01-13 18:02:00,
2013-01-13 14:07:00,81.9,17.6,29.94,North,1,6.3,6.3,9,0.00,,SCT120,0.00,VWS V14.01,2013-01-13 18:07:00,
2013-01-13 14:12:00,81.5,17.3,29.94,NE,42,2.2,6.3,9,0.00,,SCT120,0.00,VWS V14.01,2013-01-13 18:12:00,
2013-01-13 14:17:00,81.1,17.0,29.94,NE,42,2.2,6.3,9,0.00,,SCT120,0.00,VWS V14.01,2013-01-13 18:17:00,
2013-01-13 14:22:00,82.0,24.5,29.94,NE,49,4.9,4.9,12,0.00,,SCT120,0.00,VWS V14.01,2013-01-13 18:22:00,
2013-01-13 14:27:00,81.7,24.2,29.94,NW,317,5.8,6.3,12,0.00,,SCT120,0.00,VWS V14.01,2013-01-13 18:27:00,
2013-01-13 14:32:00,81.1,17.0,29.94,NNE,26,5.8,8.1,9,0.00,,SCT120,0.00,VWS V14.01,2013-01-13 18:32:00,
2013-01-13 14:37:00,81.5,17.3,29.94,North,1,5.4,8.7,9,0.00,,SCT120,0.00,VWS V14.01,2013-01-13 18:37:00,
2013-01-13 14:42:00,81.3,23.9,29.94,North,7,5.4,8.3,12,0.00,,SCT120,0.00,VWS V14.01,2013-01-13 18:42:00,
2013-01-13 14:47:00,81.9,24.3,29.94,NNE,24,5.4,8.3,12,0.00,,SCT120,0.00,VWS V14.01,2013-01-13 18:47:00,
2013-01-13 14:52:00,81.9,24.3,29.94,NE,42,5.8,8.3,12,0.00,,SCT120,0.00,VWS V14.01,2013-01-13 18:52:00,
2013-01-13 14:57:00,82.0,24.5,29.94,ENE,63,5.8,8.3,12,0.00,,SCT120,0.00,VWS V14.01,2013-01-13 18:57:00,
2013-01-13 15:02:00,81.7,24.2,29.94,NE,38,6.3,6.3,12,0.00,,SCT120,0.00,VWS V14.01,2013-01-13 19:02:00,
2013-01-13 15:07:00,81.1,27.5,29.94,North,353,5.4,6.3,14,0.00,,SCT120,0.00,VWS V14.01,2013-01-13 19:07:00,
2013-01-13 15:12:00,82.0,24.5,29.94,ENE,71,8.7,8.7,12,0.00,,SCT120,0.00,VWS V14.01,2013-01-13 19:12:00,
2013-01-13 15:17:00,82.2,24.6,29.94,North,11,6.3,8.7,12,0.00,,SCT120,0.00,VWS V14.01,2013-01-13 19:17:00,
2013-01-13 15:22:00,81.1,23.8,29.94,NNE,13,6.3,6.3,12,0.00,,SCT120,0.00,VWS V14.01,2013-01-13 19:22:00,
2013-01-13 15:27:00,81.5,27.8,29.94,NW,310,5.4,9.2,14,0.00,,SCT120,0.00,VWS V14.01,2013-01-13 19:27:00,
2013-01-13 15:32:00,81.1,27.5,29.94,NE,37,4.0,9.2,14,0.00,,SCT120,0.00,VWS V14.01,2013-01-13 19:32:00,
2013-01-13 15:37:00,81.1,32.2,29.94,NNW,341,4.5,9.2,17,0.00,,SCT120,0.00,VWS V14.01,2013-01-13 19:37:00,
2013-01-13 15:42:00,80.2,28.4,29.94,NNE,31,7.6,8.3,15,0.00,,SCT120,0.00,VWS V14.01,2013-01-13 19:42:00,
2013-01-13 15:47:00,80.4,31.7,29.94,NNE,13,8.7,8.7,17,0.00,,SCT120,0.00,VWS V14.01,2013-01-13 19:47:00,
2013-01-13 15:52:00,81.3,27.6,29.94,NE,46,6.3,8.7,14,0.00,,SCT120,0.00,VWS V14.01,2013-01-13 19:52:00,
2013-01-13 15:57:00,81.7,32.7,29.94,ENE,77,3.6,8.7,17,0.00,,SCT120,0.00,VWS V14.01,2013-01-13 19:57:00,
2013-01-13 16:02:00,81.5,27.8,29.94,NNE,17,8.7,8.7,14,0.00,,SCT120,0.00,VWS V14.01,2013-01-13 20:02:00,
2013-01-13 16:07:00,81.0,32.1,29.94,WNW,298,4.0,8.7,17,0.00,,SCT120,0.00,VWS V14.01,2013-01-13 20:07:00,
2013-01-13 16:12:00,79.9,35.3,29.94,North,357,6.3,9.6,20,0.00,,SCT120,0.00,VWS V14.01,2013-01-13 20:12:00,
2013-01-13 16:17:00,79.5,35.0,29.94,NNE,18,4.9,9.6,20,0.00,,SCT120,0.00,VWS V14.01,2013-01-13 20:17:00,
2013-01-13 16:22:00,80.6,35.9,29.94,ENE,75,6.3,6.3,20,0.00,,SCT120,0.00,VWS V14.01,2013-01-13 20:22:00,
2013-01-13 16:27:00,80.4,35.7,29.94,East,93,7.6,7.6,20,0.00,,SCT120,0.00,VWS V14.01,2013-01-13 20:27:00,
2013-01-13 16:32:00,80.4,35.7,29.94,NE,40,5.8,7.6,20,0.00,,SCT120,0.00,VWS V14.01,2013-01-13 20:32:00,
2013-01-13 16:37:00,80.2,36.8,29.97,NE,42,5.4,7.6,21,0.00,,SCT120,0.00,VWS V14.01,2013-01-13 20:37:00,
2013-01-13 16:42:00,80.4,37.0,29.97,NE,49,2.2,5.4,21,0.00,,SCT120,0.00,VWS V14.01,2013-01-13 20:42:00,
2013-01-13 16:47:00,81.0,36.2,29.97,NNE,16,6.7,6.7,20,0.00,,SCT120,0.00,VWS V14.01,2013-01-13 20:47:00,
2013-01-13 16:52:00,81.1,36.3,29.97,ENE,74,5.8,8.3,20,0.00,,SCT120,0.00,VWS V14.01,2013-01-13 20:52:00,
2013-01-13 16:57:00,81.0,36.2,29.97,ENE,78,4.0,8.3,20,0.00,,SCT120,0.00,VWS V14.01,2013-01-13 20:57:00,
2013-01-13 17:02:00,80.4,37.0,29.97,NE,48,7.2,7.2,21,0.00,,SCT120,0.00,VWS V14.01,2013-01-13 21:02:00,
2013-01-13 17:07:00,80.2,36.8,29.97,NE,47,3.1,7.2,21,0.00,,SCT120,0.00,VWS V14.01,2013-01-13 21:07:00,
2013-01-13 17:12:00,79.9,38.8,29.97,ENE,64,3.6,7.2,23,0.00,,SCT120,0.00,VWS V14.01,2013-01-13 21:12:00,
2013-01-13 17:17:00,78.3,37.5,29.97,NNE,21,3.6,7.2,23,0.00,,SCT120,0.00,VWS V14.01,2013-01-13 21:17:00,
2013-01-13 17:22:00,78.3,39.6,29.97,ENE,74,5.4,8.7,25,0.00,,SCT120,0.00,VWS V14.01,2013-01-13 21:22:00,
2013-01-13 17:27:00,78.6,39.9,29.97,NNW,327,2.2,8.7,25,0.00,,SCT120,0.00,VWS V14.01,2013-01-13 21:27:00,
2013-01-13 17:32:00,78.6,38.8,29.97,NE,41,2.7,8.7,24,0.00,,SCT120,0.00,VWS V14.01,2013-01-13 21:32:00,
2013-01-13 17:37:00,78.6,38.8,29.97,North,1,2.7,8.7,24,0.00,,SCT120,0.00,VWS V14.01,2013-01-13 21:37:00,
2013-01-13 17:42:00,77.9,38.2,29.97,NE,43,5.8,5.8,24,0.00,,SCT120,0.00,VWS V14.01,2013-01-13 21:42:00,
2013-01-13 17:48:00,78.1,39.4,29.97,ENE,68,3.1,7.6,25,0.00,,SCT120,0.00,VWS V14.01,2013-01-13 21:48:00,
2013-01-13 17:52:00,77.9,39.3,29.97,NE,35,4.9,7.6,25,0.00,,SCT120,0.00,VWS V14.01,2013-01-13 21:52:00,
2013-01-13 17:58:00,77.9,39.3,29.97,NE,47,3.6,7.6,25,0.00,,SCT120,0.00,VWS V14.01,2013-01-13 21:58:00,
2013-01-13 18:02:00,77.7,39.1,29.97,ENE,67,3.6,8.3,25,0.00,,SCT120,0.00,VWS V14.01,2013-01-13 22:02:00,
2013-01-13 18:07:00,77.7,39.1,29.97,NE,55,3.1,8.3,25,0.00,,SCT120,0.00,VWS V14.01,2013-01-13 22:07:00,
2013-01-13 18:13:00,77.7,39.1,29.97,NE,45,3.1,8.3,25,0.00,,SCT120,0.00,VWS V14.01,2013-01-13 22:13:00,
2013-01-13 18:18:00,77.2,39.7,29.97,NE,43,8.1,8.3,26,0.00,,SCT120,0.00,VWS V14.01,2013-01-13 22:18:00,
2013-01-13 18:23:00,77.2,40.7,29.97,ENE,57,4.0,4.0,27,0.00,,SCT120,0.00,VWS V14.01,2013-01-13 22:23:00,
2013-01-13 18:28:00,77.4,40.8,29.97,ENE,57,4.0,4.0,27,0.00,,SCT120,0.00,VWS V14.01,2013-01-13 22:28:00,
2013-01-13 18:33:00,77.0,39.5,29.97,NE,36,5.4,5.4,26,0.00,,SCT120,0.00,VWS V14.01,2013-01-13 22:33:00,
2013-01-13 18:38:00,77.2,39.7,29.97,NE,34,2.7,5.4,26,0.00,,SCT120,0.00,VWS V14.01,2013-01-13 22:38:00,
2013-01-13 18:43:00,77.2,39.7,29.97,NE,34,2.7,2.7,26,0.00,,SCT120,0.00,VWS V14.01,2013-01-13 22:43:00,
2013-01-13 18:48:00,76.8,40.3,29.97,NNE,25,2.7,2.7,27,0.00,,SCT120,0.00,VWS V14.01,2013-01-13 22:48:00,
2013-01-13 18:52:00,76.8,40.3,29.97,ENE,58,5.4,5.8,27,0.00,,SCT120,0.00,VWS V14.01,2013-01-13 22:52:00,
2013-01-13 18:57:00,77.0,39.5,29.97,ENE,62,4.9,6.3,26,0.00,,SCT120,0.00,VWS V14.01,2013-01-13 22:57:00,
2013-01-13 19:02:00,77.0,39.5,29.97,ENE,68,3.1,3.6,26,0.00,,SCT120,0.00,VWS V14.01,2013-01-13 23:02:00,
2013-01-13 19:08:00,77.0,39.5,29.97,ENE,68,3.1,3.6,26,0.00,,SCT120,0.00,VWS V14.01,2013-01-13 23:08:00,
2013-01-13 19:13:00,77.0,40.5,29.97,NE,49,4.0,4.0,27,0.00,,SCT120,0.00,VWS V14.01,2013-01-13 23:13:00,
2013-01-13 19:18:00,76.8,39.4,29.97,NE,43,2.7,4.0,26,0.00,,SCT120,0.00,VWS V14.01,2013-01-13 23:18:00,
2013-01-13 19:23:00,76.8,39.4,29.97,North,357,3.1,3.1,26,0.00,,SCT120,0.00,VWS V14.01,2013-01-13 23:23:00,
2013-01-13 19:28:00,76.8,39.4,29.97,ENE,77,2.2,3.1,26,0.00,,SCT120,0.00,VWS V14.01,2013-01-13 23:28:00,
2013-01-13 19:33:00,76.6,39.2,29.97,NE,35,3.1,3.1,26,0.00,,SCT120,0.00,VWS V14.01,2013-01-13 23:33:00,
2013-01-13 19:38:00,76.6,40.2,29.97,NNE,27,3.1,5.8,27,0.00,,SCT120,0.00,VWS V14.01,2013-01-13 23:38:00,
2013-01-13 19:43:00,76.6,40.2,29.97,NNE,26,3.6,3.6,27,0.00,,SCT120,0.00,VWS V14.01,2013-01-13 23:43:00,
2013-01-13 19:48:00,76.5,39.1,29.97,ENE,60,2.7,3.6,26,0.00,,SCT120,0.00,VWS V14.01,2013-01-13 23:48:00,
2013-01-13 19:53:00,76.3,38.9,29.97,NW,310,2.7,4.0,26,0.00,,SCT120,0.00,VWS V14.01,2013-01-13 23:53:00,
2013-01-13 19:58:00,76.5,39.1,29.97,North,9,2.7,4.0,26,0.00,,SCT120,0.00,VWS V14.01,2013-01-13 23:58:00,
2013-01-13 20:03:00,76.5,39.1,29.97,NE,49,3.1,3.1,26,0.00,,SCT120,0.00,VWS V14.01,2013-01-14 00:03:00,
2013-01-13 20:08:00,76.3,38.9,29.97,ENE,63,2.7,3.1,26,0.00,,SCT120,0.00,VWS V14.01,2013-01-14 00:08:00,
2013-01-13 20:13:00,76.3,38.9,29.97,NE,46,2.7,3.1,26,0.00,,SCT120,0.00,VWS V14.01,2013-01-14 00:13:00,
2013-01-13 20:18:00,76.5,39.1,29.97,NNE,14,2.7,4.9,26,0.00,,SCT120,0.00,VWS V14.01,2013-01-14 00:18:00,
2013-01-13 20:23:00,76.3,39.9,29.97,NE,35,2.2,4.0,27,0.00,,SCT120,0.00,VWS V14.01,2013-01-14 00:23:00,
2013-01-13 20:28:00,76.3,38.9,29.97,NNE,27,2.7,4.0,26,0.00,,SCT120,0.00,VWS V14.01,2013-01-14 00:28:00,
2013-01-13 20:33:00,76.3,38.9,29.97,NNE,27,2.7,4.0,26,0.00,,SCT120,0.00,VWS V14.01,2013-01-14 00:33:00,
2013-01-13 20:38:00,76.1,37.8,29.97,ENE,72,4.0,5.8,25,0.00,,SCT120,0.00,VWS V14.01,2013-01-14 00:38:00,
2013-01-13 20:43:00,76.1,38.8,29.97,NE,48,3.6,3.6,26,0.00,,SCT120,0.00,VWS V14.01,2013-01-14 00:43:00,
2013-01-13 20:48:00,76.1,38.8,29.97,ENE,74,0.0,3.6,26,0.00,,SCT120,0.00,VWS V14.01,2013-01-14 00:48:00,
2013-01-13 20:53:00,76.1,38.8,29.97,ENE,75,0.0,3.6,26,0.00,,SCT120,0.00,VWS V14.01,2013-01-14 00:53:00,
2013-01-13 20:58:00,76.1,38.8,29.97,ENE,75,0.0,3.6,26,0.00,,SCT120,0.00,VWS V14.01,2013-01-14 00:58:00,
2013-01-13 21:03:00,75.9,39.6,29.97,ENE,69,0.0,0.0,27,0.00,,SCT120,0.00,VWS V14.01,2013-01-14 01:03:00,
2013-01-13 21:08:00,75.7,39.4,29.97,ESE,104,3.1,3.1,27,0.00,,SCT120,0.00,VWS V14.01,2013-01-14 01:08:00,
2013-01-13 21:13:00,75.6,39.3,29.97,NE,43,5.8,5.8,27,0.00,,SCT120,0.00,VWS V14.01,2013-01-14 01:13:00,
2013-01-13 21:18:00,75.6,39.3,29.97,ENE,67,0.0,5.8,27,0.00,,SCT120,0.00,VWS V14.01,2013-01-14 01:18:00,
2013-01-13 21:23:00,75.6,39.3,29.97,ENE,66,0.0,0.0,27,0.00,,SCT120,0.00,VWS V14.01,2013-01-14 01:23:00,
2013-01-13 21:28:00,75.6,39.3,29.97,ENE,67,0.0,0.0,27,0.00,,SCT120,0.00,VWS V14.01,2013-01-14 01:28:00,
2013-01-13 21:33:00,75.4,40.0,29.97,ENE,65,0.0,0.0,28,0.00,,SCT120,0.00,VWS V14.01,2013-01-14 01:33:00,
2013-01-13 21:38:00,75.2,39.9,29.97,ENE,66,0.0,0.0,28,0.00,,SCT120,0.00,VWS V14.01,2013-01-14 01:38:00,
2013-01-13 21:43:00,75.0,40.6,29.97,ENE,66,0.0,0.0,29,0.00,,SCT120,0.00,VWS V14.01,2013-01-14 01:43:00,
2013-01-13 21:48:00,75.0,41.5,29.97,ENE,67,0.0,0.0,30,0.00,,SCT120,0.00,VWS V14.01,2013-01-14 01:48:00,
2013-01-13 21:53:00,75.0,41.5,30.00,ENE,65,0.0,0.0,30,0.00,,SCT120,0.00,VWS V14.01,2013-01-14 01:53:00,
2013-01-13 21:58:00,75.0,42.4,30.00,ENE,65,0.0,0.0,31,0.00,,SCT120,0.00,VWS V14.01,2013-01-14 01:58:00,
2013-01-13 22:03:00,74.8,43.0,30.00,ENE,65,0.0,0.0,32,0.00,,SCT120,0.00,VWS V14.01,2013-01-14 02:03:00,
2013-01-13 22:08:00,74.5,43.5,30.00,ENE,66,0.0,0.0,33,0.00,,SCT120,0.00,VWS V14.01,2013-01-14 02:08:00,
2013-01-13 22:13:00,74.3,43.4,30.00,South,169,0.0,0.0,33,0.00,,SCT120,0.00,VWS V14.01,2013-01-14 02:13:00,
2013-01-13 22:18:00,74.1,43.2,30.00,South,169,0.0,0.0,33,0.00,,SCT120,0.00,VWS V14.01,2013-01-14 02:18:00,
2013-01-13 22:23:00,73.9,43.8,30.00,SSE,168,0.0,0.0,34,0.00,,SCT120,0.00,VWS V14.01,2013-01-14 02:23:00,
2013-01-13 22:28:00,73.4,45.6,30.00,South,169,0.0,0.0,37,0.00,,SCT120,0.00,VWS V14.01,2013-01-14 02:28:00,
2013-01-13 22:33:00,73.0,47.3,30.00,SSE,168,0.0,0.0,40,0.00,,SCT120,0.00,VWS V14.01,2013-01-14 02:33:00,
2013-01-13 22:38:00,72.9,48.5,30.00,SSE,168,0.0,0.0,42,0.00,,SCT120,0.00,VWS V14.01,2013-01-14 02:38:00,
2013-01-13 22:43:00,72.5,48.8,30.00,South,169,0.0,0.0,43,0.00,,SCT120,0.00,VWS V14.01,2013-01-14 02:43:00,
2013-01-13 22:48:00,72.5,48.8,30.00,South,169,0.0,0.0,43,0.00,,SCT120,0.00,VWS V14.01,2013-01-14 02:48:00,
2013-01-13 22:53:00,72.7,48.9,30.00,South,169,0.0,0.0,43,0.00,,SCT120,0.00,VWS V14.01,2013-01-14 02:53:00,
2013-01-13 22:58:00,72.3,48.6,30.00,SSE,168,0.0,0.0,43,0.00,,SCT120,0.00,VWS V14.01,2013-01-14 02:58:00,
2013-01-13 23:03:00,72.3,49.2,30.00,SSE,168,0.0,0.0,44,0.00,,SCT120,0.00,VWS V14.01,2013-01-14 03:03:00,
2013-01-13 23:08:00,72.3,49.8,30.00,SSE,168,0.0,0.0,45,0.00,,SCT120,0.00,VWS V14.01,2013-01-14 03:08:00,
2013-01-13 23:13:00,72.1,49.7,30.00,SSE,168,0.0,0.0,45,0.00,,SCT120,0.00,VWS V14.01,2013-01-14 03:13:00,
2013-01-13 23:18:00,71.8,49.9,30.00,SSE,168,0.0,0.0,46,0.00,,SCT120,0.00,VWS V14.01,2013-01-14 03:18:00,
2013-01-13 23:23:00,71.2,50.0,30.00,SSE,168,0.0,0.0,47,0.00,,SCT120,0.00,VWS V14.01,2013-01-14 03:23:00,
2013-01-13 23:28:00,71.1,52.0,30.00,SSE,168,0.0,0.0,51,0.00,,SCT120,0.00,VWS V14.01,2013-01-14 03:28:00,
2013-01-13 23:33:00,71.1,52.6,30.00,SSE,168,0.0,0.0,52,0.00,,SCT120,0.00,VWS V14.01,2013-01-14 03:33:00,
2013-01-13 23:38:00,71.1,53.1,30.00,SSE,168,0.0,0.0,53,0.00,,SCT120,0.00,VWS V14.01,2013-01-14 03:38:00,
2013-01-13 23:43:00,71.1,53.6,30.00,SSE,168,0.0,0.0,54,0.00,,SCT120,0.00,VWS V14.01,2013-01-14 03:43:00,
2013-01-13 23:48:00,70.9,53.9,30.00,SSE,168,0.0,0.0,55,0.00,,SCT120,0.00,VWS V14.01,2013-01-14 03:48:00,
2013-01-13 23:53:00,70.5,54.1,30.00,SSE,168,0.0,0.0,56,0.00,,SCT120,0.00,VWS V14.01,2013-01-14 03:53:00,
2013-01-13 23:58:00,70.3,54.9,30.00,SSE,168,0.0,0.0,58,0.00,,SCT120,0.00,VWS V14.01,2013-01-14 03:58:00,